Location: Carrières
(48.9495°N, 2.0407°E)
Time: 10:22:58
(UTC+00:00)

Transit 2A - Pass Details

Date: 28 April 2024
Orbit: 594 x 958 km, 66.7° (Epoch: 24 May)

Event Time Altitude Azimuth Distance (km) Brightness Sun altitude
Rises 03:33:07 0° 177° (S) 2,845 8.6 -9.8°
Reaches altitude 10° 03:35:38 10° 163° (SSE) 1,975 8.0 -9.5°
Maximum altitude 03:39:11 24° 110° (ESE) 1,337 7.7 -9.0°
Drops below altitude 10° 03:42:56 10° 57° (ENE) 2,114 10.0 -8.5°
Sets 03:45:43 0° 44° (NE) 3,098 11.1 -8.1°
